Total_Precipitation_Accumulation
0.51 0.73 0.89 1.12 1.49 1.85 2.41 3.05 3.54 3.60 3.36 2.99 2.60 2.35 2.02 1.80 1.58 1.34 1.16 1.06 1.05 1.11 1.26 1.13 1.20 1.28 1.20 1.11 1.13 1.19 1.21 1.04 1.29 1.40 0.95 0.68 0.62 0.56 0.47 0.45 0.41 0.34 0.35
0.66 0.83 1.08 1.29 1.49 1.85 2.25 2.53 2.43 2.17 2.03 1.97 1.87 1.62 1.59 1.59 1.52 1.43 1.23 1.04 1.05 1.03 0.98 0.97 0.98 1.03 1.06 0.96 0.92 1.03 1.01 0.85 1.10 1.21 1.06 0.69 0.52 0.42 0.36 0.36 0.33 0.32 0.38
0.61 0.84 1.13 1.29 1.31 1.50 1.65 1.58 1.31 1.04 1.01 1.05 1.00 1.14 1.32 1.45 1.49 1.52 1.42 1.26 1.21 1.18 1.12 1.03 0.94 0.91 0.94 0.92 0.88 0.96 0.95 0.83 0.87 1.01 1.15 0.88 0.55 0.42 0.30 0.31 0.36 0.43 0.50
0.48 0.69 0.88 0.91 0.97 1.02 0.89 0.76 0.67 0.57 0.54 0.54 0.58 0.66 0.86 1.16 1.36 1.54 1.59 1.60 1.52 1.37 1.24 1.11 0.94 0.81 0.79 0.82 0.75 0.80 0.89 0.89 0.79 0.80 0.87 0.90 0.90 0.81 0.48 0.28 0.30 0.47 0.54
0.52 0.54 0.52 0.52 0.54 0.53 0.45 0.39 0.41 0.43 0.44 0.46 0.54 0.56 0.54 0.61 0.63 0.71 0.84 1.00 1.13 1.10 0.96 0.89 0.83 0.73 0.67 0.67 0.70 0.80 0.87 0.89 0.80 0.80 0.79 0.83 0.96 0.96 0.83 0.52 0.46 0.51 0.49
0.34 0.35 0.34 0.33 0.31 0.28 0.26 0.32 0.39 0.48 0.50 0.52 0.54 0.52 0.52 0.58 0.58 0.59 0.62 0.62 0.66 0.68 0.66 0.64 0.66 0.65 0.64 0.63 0.63 0.69 0.77 0.85 0.89 0.90 0.96 1.00 1.00 1.06 1.13 0.92 0.76 0.70 0.62
0.18 0.18 0.20 0.22 0.18 0.16 0.14 0.17 0.24 0.33 0.35 0.38 0.43 0.46 0.53 0.56 0.52 0.48 0.45 0.44 0.44 0.47 0.51 0.54 0.59 0.59 0.63 0.69 0.76 0.76 0.76 0.83 0.93 0.97 1.05 1.14 1.14 1.21 1.30 1.23 1.04 0.95 0.93
0.09 0.08 0.08 0.09 0.09 0.09 0.09 0.09 0.10 0.14 0.20 0.26 0.34 0.48 0.66 0.72 0.68 0.66 0.53 0.49 0.48 0.47 0.50 0.57 0.63 0.62 0.64 0.65 0.74 0.78 0.85 0.91 0.94 0.95 1.10 1.19 1.15 1.26 1.39 1.41 1.37 1.25 1.26
0.07 0.04 0.04 0.04 0.04 0.04 0.05 0.06 0.06 0.10 0.17 0.24 0.31 0.37 0.42 0.49 0.50 0.52 0.51 0.48 0.54 0.50 0.55 0.63 0.71 0.74 0.74 0.76 0.80 0.81 0.91 1.08 1.15 1.14 1.17 1.23 1.22 1.27 1.39 1.49 1.52 1.50 1.45
0.04 0.02 0.02 0.02 0.02 0.03 0.05 0.08 0.07 0.14 0.27 0.40 0.46 0.36 0.29 0.27 0.33 0.42 0.49 0.51 0.54 0.55 0.59 0.63 0.66 0.71 0.73 0.76 0.80 0.86 0.96 1.10 1.17 1.25 1.35 1.34 1.30 1.34 1.40 1.44 1.54 1.63 1.63
0.03 0.01 0.01 0.01 0.02 0.03 0.07 0.18 0.24 0.31 0.43 0.58 0.66 0.55 0.38 0.31 0.31 0.35 0.34 0.36 0.44 0.54 0.61 0.58 0.52 0.49 0.55 0.66 0.80 0.88 0.96 1.05 1.08 1.15 1.17 1.16 1.19 1.23 1.19 1.26 1.38 1.54 1.65
0.01 0.01 0.01 0.01 0.01 0.03 0.14 0.38 0.63 0.89 0.95 1.03 1.11 0.96 0.58 0.36 0.29 0.24 0.23 0.29 0.41 0.52 0.57 0.54 0.49 0.47 0.54 0.66 0.80 0.96 1.16 1.28 1.24 1.16 1.07 1.00 1.05 1.11 1.14 1.23 1.26 1.32 1.50
0.01 0.01 0.01 0.01 0.01 0.03 0.09 0.24 0.32 0.56 0.77 0.93 1.04 0.84 0.46 0.26 0.19 0.17 0.22 0.36 0.47 0.51 0.52 0.53 0.58 0.68 0.77 0.87 0.99 1.05 1.19 1.24 1.15 1.10 1.02 0.95 0.94 0.96 1.03 1.14 1.21 1.21 1.29
0.01 0.01 0.01 0.01 0.02 0.02 0.04 0.14 0.19 0.20 0.29 0.53 0.68 0.55 0.32 0.21 0.17 0.17 0.23 0.29 0.32 0.37 0.47 0.59 0.76 0.88 0.93 0.96 1.03 1.01 0.98 0.98 0.90 0.83 0.78 0.83 0.93 0.97 0.92 0.91 0.95 1.02 1.12
0.01 0.01 0.01 0.01 0.02 0.02 0.04 0.10 0.15 0.15 0.23 0.43 0.54 0.43 0.27 0.19 0.13 0.11 0.13 0.18 0.26 0.32 0.44 0.61 0.70 0.70 0.72 0.79 0.87 0.87 0.84 0.79 0.74 0.65 0.51 0.51 0.69 0.84 0.85 0.79 0.78 0.79 0.86
0.02 0.02 0.02 0.01 0.02 0.03 0.04 0.04 0.07 0.12 0.21 0.37 0.49 0.43 0.33 0.21 0.13 0.11 0.13 0.19 0.26 0.31 0.39 0.48 0.49 0.45 0.36 0.35 0.39 0.47 0.55 0.59 0.59 0.50 0.44 0.43 0.48 0.53 0.56 0.61 0.64 0.67 0.70
0.02 0.01 0.01 0.01 0.01 0.03 0.05 0.06 0.06 0.10 0.22 0.37 0.46 0.47 0.42 0.31 0.24 0.16 0.17 0.23 0.28 0.32 0.38 0.37 0.38 0.40 0.38 0.26 0.20 0.21 0.32 0.40 0.42 0.41 0.41 0.35 0.32 0.34 0.31 0.32 0.35 0.39 0.46
0.01 0.01 0.01 0.01 0.01 0.02 0.03 0.05 0.06 0.10 0.19 0.31 0.44 0.50 0.48 0.45 0.42 0.33 0.31 0.33 0.37 0.40 0.44 0.40 0.40 0.43 0.41 0.29 0.21 0.17 0.19 0.30 0.34 0.35 0.34 0.32 0.34 0.34 0.31 0.26 0.25 0.23 0.25
0.01 0.01 0.01 0.02 0.02 0.03 0.03 0.04 0.06 0.10 0.17 0.26 0.41 0.50 0.52 0.51 0.49 0.47 0.46 0.49 0.53 0.49 0.47 0.45 0.46 0.49 0.49 0.35 0.23 0.18 0.25 0.35 0.35 0.35 0.33 0.32 0.32 0.31 0.29 0.29 0.26 0.24 0.24
0.01 0.01 0.01 0.02 0.03 0.04 0.05 0.07 0.09 0.15 0.23 0.28 0.39 0.54 0.64 0.69 0.68 0.65 0.60 0.60 0.69 0.63 0.56 0.51 0.53 0.57 0.63 0.53 0.31 0.23 0.33 0.48 0.50 0.51 0.46 0.39 0.35 0.32 0.24 0.25 0.27 0.24 0.22
0.01 0.02 0.02 0.03 0.05 0.06 0.10 0.15 0.19 0.25 0.27 0.31 0.37 0.51 0.70 0.81 0.81 0.83 0.78 0.75 0.76 0.78 0.77 0.69 0.69 0.71 0.75 0.67 0.39 0.29 0.41 0.56 0.65 0.66 0.60 0.50 0.40 0.31 0.26 0.25 0.26 0.25 0.25
0.01 0.02 0.03 0.05 0.06 0.10 0.19 0.28 0.33 0.34 0.35 0.39 0.47 0.58 0.71 0.65 0.66 0.88 0.93 0.95 0.99 0.97 0.92 0.87 0.81 0.79 0.80 0.73 0.49 0.31 0.41 0.59 0.77 0.82 0.76 0.66 0.51 0.38 0.31 0.29 0.27 0.26 0.25
0.03 0.04 0.06 0.09 0.13 0.21 0.35 0.47 0.47 0.46 0.46 0.50 0.56 0.63 0.70 0.80 0.92 1.00 1.02 1.05 1.08 1.09 1.02 0.97 0.93 0.89 0.90 0.86 0.56 0.39 0.46 0.58 0.75 0.93 0.94 0.77 0.61 0.51 0.39 0.36 0.36 0.31 0.27
0.03 0.05 0.10 0.19 0.27 0.37 0.50 0.58 0.57 0.57 0.56 0.58 0.59 0.63 0.74 0.83 0.94 1.11 1.18 1.18 1.13 1.12 1.09 1.02 0.98 0.98 1.02 1.05 0.81 0.58 0.58 0.67 0.75 0.88 0.94 0.84 0.71 0.62 0.51 0.44 0.42 0.38 0.34
0.05 0.09 0.17 0.26 0.34 0.47 0.58 0.59 0.61 0.68 0.71 0.67 0.66 0.66 0.74 0.88 0.97 1.08 1.17 1.18 1.22 1.05 1.00 0.94 0.91 0.93 1.01 1.03 0.85 0.76 0.79 0.90 0.95 0.93 0.96 0.95 0.81 0.70 0.61 0.54 0.53 0.51 0.48
0.08 0.15 0.24 0.29 0.33 0.45 0.60 0.65 0.73 0.81 0.85 0.82 0.74 0.70 0.75 0.88 0.99 1.09 1.09 0.93 0.88 0.71 0.63 0.64 0.61 0.65 0.71 0.81 0.70 0.61 0.71 0.87 0.94 0.91 0.92 0.95 0.90 0.79 0.69 0.61 0.61 0.60 0.56